www.pogodaiklimat.ru

Погода и климат >> Архив погоды >> Вьетнам >> Phu Lien


ПОГОДА в Phu Lien

  • Прогноз погоды в Phu Lien
  • Монитор погоды в Phu Lien
  • Климат города

АРХИВ ПОГОДЫ в Phu Lien

Время (UTC), дата Ветер
(напр.,м/с)
 
Видим.   Явления Облачность Т
(С)
Тd
(С)
f
(%)
Тe
(С)
Тes
(С)
Комфортность P
(гПа)
Po
(гПа)
Тmin
(С)
Tmax
(С)
R
(мм)
R24
(мм)
S
(см)
18 12.07 С 2 10 км зарница 8/8 800 м
[Cb cap]
+28.6 +26.0 86 +43 +43 опасность
перегрева
1001.2 988.1
21 12.07 СВ 2 10 км зарница 9/9 600 м
[Cb cap]
+27.6 +25.6 89 +41 +41 опасность
перегрева
1000.6 987.5
00 13.07 С 3 10 км 9/9 600 м
[Cb cap]
+27.8 +25.6 88 +41 +41 опасность
перегрева
1001.1 988.7 +27.0
03 13.07 штиль 0 10 км гроза, ливневой дождь 10/10 600 м
[Cb cap]
+27.6 +26.7 95 +43 +43 опасность
перегрева
1002.8 989.7
06 13.07 Ю 1 10 км слабый дождь {гроза} 10/6 600 м
[Cu med, cong As op]
+27.5 +26.8 96 +43 +45 опасность
перегрева
1001.5 988.4 4
09 13.07 штиль 0 10 км {дождь} 10/5 600 м
[Cu med, cong As op]
+28.5 +26.9 91 +45 +46 опасность
перегрева
999.8 986.8
12 13.07 СВ 3 10 км гроза без осадков 10/5 800 м
[Cb cap As op]
+25.6 +24.7 95 +36 +36 очень
душно
999.9 986.8 +25.6 +28.7 10
15 13.07 С 4 4000 м гроза, ливневой дождь 10/10 600 м
[Cb cap]
+25.8 +25.0 95 +37 +37 очень
душно
1002.3 989.1
18 13.07 В 1 10 км гроза, ливневой дождь 10/6 600 м
[Cb cap As op]
+25.4 +25.1 98 +36 +36 очень
душно
1002.1 988.9 16
21 13.07 СВ 2 10 км слабый дождь {гроза} 10/5 600 м
[Cu med, cong As op]
+24.9 +24.6 98 +35 +35 очень
душно
1000.6 987.4
00 14.07 С 2 10 км слабый дождь {гроза} 10/3 800 м
[Cu med, cong As op]
+24.8 +24.6 99 +35 +35 очень
душно
1001.3 988.0 +24.8 29
03 14.07 С 2 10 км слабый дождь 10/4 600 м
[Frnb As op]
+25.6 +25.1 97 +37 +39 очень
душно
1002.1 988.9
06 14.07 штиль 0 10 км слабый дождь 10/6 800 м
[Cu Sc As op]
+27.2 +26.3 95 +41 +44 опасность
перегрева
1000.8 987.7 2
09 14.07 В 1 10 км {дождь} 9/8 600 м
[Cu Sc As trans]
+28.0 +25.4 86 +41 +42 опасность
перегрева
999.4 986.4
12 14.07 С 2 10 км {дождь} 8/8 600 м
[Cu Sc]
+26.3 +24.8 91 +37 +37 очень
душно
1000.5 987.4 +28.4 2
15 14.07 С 1 10 км {гроза, ливн. осадки} 8/8 600 м
[Cu med, cong]
+25.3 +24.8 97 +36 +36 очень
душно
1002.2 989.0
18 14.07 С 1 10 км слабый дождь {гроза} 10/8 800 м
[Cu med, cong As op]
+25.7 +25.4 98 +37 +37 очень
душно
1001.4 988.2 3
21 14.07 С 3 4000 м дождь 10/8 450 м
[Frnb As op]
+25.1 +24.9 99 +36 +36 очень
душно
1000.1 987.0
00 15.07 С 3 10 км слабый дождь 10/8 300 м
[Frnb As op]
+24.6 +24.6 100 +34 +35 очень
душно
1001.6 988.3 +24.4 25
03 15.07 С 2 6000 м дождь 10/8 300 м
[Frnb As op]
+25.2 +24.9 98 +36 +36 очень
душно
1002.3 989.1
06 15.07 З 2 10 км слабый дождь 10/4 800 м
[Cu hum As op]
+26.1 +25.3 95 +38 +40 очень
душно
1001.0 987.8 12
09 15.07 Ю 1 10 км гроза без осадков 10/6 600 м
[Cb cap As op]
+27.5 +25.9 91 +41 +42 опасность
перегрева
999.2 986.2
12 15.07 С 3 10 км слабый дождь {гроза} 10/6 800 м
[Cb cap As op]
+25.4 +25.1 98 +36 +36 очень
душно
1001.2 988.0 +28.2 19
15 15.07 С 4 10 км слабый дождь 10/4 600 м
[Frnb As op]
+24.7 +24.5 99 +35 +35 очень
душно
1002.3 989.0
18 15.07 С 4 10 км в посл. час дождь {гроза} 10/6 800 м
[Frnb As op]
+25.2 +25.0 99 +36 +36 очень
душно
1001.1 987.9 6
21 15.07 В 2 10 км слабый дождь {гроза} 10/6 800 м
[Frnb As op]
+25.0 +24.7 98 +35 +35 очень
душно
1000.3 987.2
00 16.07 С 4 10 км слабый дождь 9/9 800 м
[Cb cap]
+25.2 +24.9 98 +36 +36 очень
душно
1001.0 987.8 +24.5 9
03 16.07 С 5 10 км в посл. час дождь 9/9 600 м
[Cu Sc]
+27.6 +25.6 89 +41 +42 опасность
перегрева
1001.3 988.2
06 16.07 СВ 2 20 км {дождь} 10/10 600 м
[Cu Sc]
+29.1 +24.9 78 +42 +42 опасность
перегрева
1000.5 987.5 5
09 16.07 С 3 10 км в посл. час ливневой дождь 9/9 600 м
[Cb cap]
+27.8 +26.2 91 +42 +43 опасность
перегрева
999.1 986.1
12 16.07 С 4 10 км {ливн. осадки, дождь} 9/9 600 м
[Cu Sc]
+26.2 +24.3 89 +36 +36 очень
душно
1000.7 987.5 +30.7 8
15 16.07 С 3 10 км 8/8 800 м
[Cu Sc]
+26.3 +23.8 86 +36 +36 очень
душно
1002.0 988.8
18 16.07 СВ 3 10 км в посл. час дождь 10/10 600 м
[Cu Sc]
+25.2 +23.7 91 +34 +34 очень
душно
1001.5 988.3 0.6
21 16.07 С 3 4000 м дождь 10/10 300 м
[Cu Sc]
+24.5 +24.0 97 +34 +34 очень
душно
1001.0 987.7
00 17.07 С 5 10 км слабый дождь 10/10 300 м
[Cu Sc]
+24.6 +24.3 98 +34 +34 очень
душно
1001.3 988.0 +24.3 7
03 17.07 С 3 10 км {дождь} 9/9 600 м
[Cu Sc]
+26.8 +24.6 88 +38 +39 очень
душно
1002.3 989.1
06 17.07 С 2 10 км слабый дождь 10/10 800 м
[Cu Sc]
+28.2 +24.9 82 +40 +40 очень
душно
1001.7 988.6 0.4
09 17.07 СВ 3 10 км {дождь} 9/9 800 м
[Cu Sc]
+30.0 +25.6 77 +44 +45 опасность
перегрева
1000.3 987.4
12 17.07 В 1 10 км {дождь} 8/8 600 м
[Cu Sc]
+27.7 +25.1 86 +40 +40 очень
душно
1001.3 988.2 +30.6 0.6
15 17.07 СВ 1 10 км 8/3 800 м
[Cu med, cong Cs]
+27.3 +24.7 86 +39 +39 очень
душно
1002.9 989.8
18 17.07 СЗ 2 10 км 9/9 800 м
[Cu Sc]
+26.7 +25.2 91 +38 +38 очень
душно
1002.2 989.0
21 17.07 СЗ 5 10 км 8/8 600 м
[Cu Sc]
+26.3 +25.7 97 +39 +39 очень
душно
1000.0 986.9
00 18.07 С 3 10 км гроза, ливневой дождь 10/8 450 м
[Cb cap As op]
+26.3 +25.5 95 +38 +38 очень
душно
1000.8 987.6 +25.6 0.1
03 18.07 С 4 10 км в посл. час дождь {гроза, ливн. осадки} 9/9 600 м
[Cb cap]
+27.2 +26.6 97 +42 +43 опасность
перегрева
1001.7 988.6
06 18.07 В 3 10 км в посл. час дождь {гроза, ливн. осадки} 9/8 600 м
[Cb cap Ci fib]
+30.4 +27.8 86 +50 +53 опасность
перегрева
999.5 986.6 6
09 18.07 СВ 4 10 км {дождь} 9/9 600 м
[Cu Sc]
+30.5 +24.8 72 +44 +44 опасность
перегрева
997.9 985.0
12 18.07 В 5 10 км {дождь} 9/9 800 м
[Cu Sc]
+28.0 +24.8 83 +40 +40 очень
душно
999.1 986.1 +32.2 7
15 18.07 С 4 10 км {дождь} 9/9 600 м
[Cu Sc]
+25.7 +24.9 95 +36 +36 очень
душно
1000.5 987.4
18 18.07 В 1 10 км в посл. час ливневой дождь 10/10 600 м
[Cu Sc]
+25.8 +25.3 97 +37 +37 очень
душно
1000.3 987.2 9
21 18.07 В 1 10 км в посл. час дождь 10/4 300 м
[Frnb As op]
+26.0 +25.1 95 +37 +37 очень
душно
1000.1 987.0
00 19.07 С 2 20 км {дождь} 10/10 600 м
[Cb cap]
+25.7 +25.4 98 +37 +37 очень
душно
1001.9 988.7 +25.3 12
03 19.07 С 4 10 км слабый ливневой дождь 10/8 600 м
[Cu med, cong As op]
+25.9 +25.6 98 +38 +38 очень
душно
1002.8 989.6
06 19.07 В 2 10 км слабый дождь {ливн. осадки} 10/8 600 м
[Cu med, cong As op]
+25.8 +25.6 99 +38 +39 очень
душно
1002.3 989.1 32
09 19.07 С 4 3000 м сильный дождь 10/6 300 м
[Frnb As op]
+25.4 +25.1 98 +36 +37 очень
душно
1001.2 988.0
12 19.07 В 1 10 км слабый дождь 10/8 600 м
[Cu med, cong As op]
+25.6 +25.6 100 +37 +37 очень
душно
1002.3 989.1 +27.2 89

 

Местоположение метеостанции Phu Lien (Вьетнам): широта 20.80 долгота 106.63 высота над уровнем моря 116 м.

В архиве по умолчанию представлена погода в Phu Lien за последнюю неделю. Архивные данные за месяц целиком и за предыдущие месяцы, начиная с января 2011 года, Вы можете получить, выбрав интересующий диапазон дат из раскрывающегося списка и нажав кнопку "Ввод!".


*Определитесь, кто Вы:
робот инопланетянин человек

Внимание! Время в таблицах - всемирное. Для получения местного времени необходимо прибавить поправку, которая в Phu Lien равна 7 ч.

Смотрите также архив погоды в соседних городах и на ближайших метеорологических станциях:

Погода в Haiphong (Вьетнам) (10 км)
Погода в Nam Dinh (Вьетнам) (65 км)
Погода в Ha Noi (Вьетнам) (90 км)
Погода в Lang Son (Вьетнам) (115 км)
Погода в Bach Long Vi (Вьетнам) (135 км)
Погода в Thanh Hoa (Вьетнам) (147 км)
Погода в Mong Cai (Вьетнам) (160 км)
Погода в Bac Can (Вьетнам) (171 км)
Погода в Longzhou (Китай) (175 км)
Погода в Cao Bang (Вьетнам) (212 км)

Пояснения к столбцам:

Ветер - указаны скорость ветра в м/с - средняя за 10 мин, порывы в срок и между сроками (в фигурных скобках) и направление, откуда дует ветер: С - северный, СВ - северо-восточный, В - восточный, ЮВ - юго-восточный, Ю - южный, ЮЗ - юго-западный, З - западный, СЗ - северо-западный.
Видимость - горизонтальная дальность видимости в метрах или километрах. При видимости от 1 до 10 км при отсутствии осадков обычно наблюдается дымка, при ухудшении видимости до 1 км и менее - туман. В сухую погоду видимость может ухудшаться дымом, пылью или мглою.
Явления - указаны атмосферные явления, наблюдавшиеся в срок или в последний час перед сроком; фигурными скобками обозначены явления, наблюдавшиеся между сроками (за 1-3 часа до срока); квадратными скобками обозначены град или гололедные отложения с указанием их диаметра в мм.
Облачность - указаны через наклонную черту общая и нижняя облачность в баллах и высота нижней границы облаков в метрах; квадратными скобками обозначены формы облаков: Ci - перистые, Cs - перисто-слоистые, Cc - перисто-кучевые, Ac - высококучевые, As - высокослоистые, Sc - слоисто-кучевые, Ns - слоисто-дождевые, Cu - кучевые, Cb - кучево-дождевые. Подробнее классификацию облаков см. в Атласе облаков (PDF).
T - Температура воздуха - температура, измеренная на высоте 2 м над землей.
Td - Температура точки росы - температура, при понижении до которой содержащийся в воздухе водяной пар достигнет насыщения.
f - Относительная влажность воздуха - влажноcть воздуха, измеренная на высоте 2 м над землей.
Te - Эффективная температура - температура, которую ощущает одетый по сезону человек в тени. Характеристика душности погоды. При расчете учитывается влияние влажности воздуха и скорости ветра на теплоощущения человека.
Tes - Эффективная температура на солнце - температура, которую ощущает человек, с поправкой на солнечный нагрев. Характеристика знойности погоды. Зависит от высоты солнца над горизонтом, облачности и скорости ветра. Ночью, в пасмурную погоду, а также при ветре 12 м/с и более поправка равна нулю.
P - Атмосферное давление - приведенное к уровню моря атмосферное давление.
Po - Атмосферное давление - измеренное на уровне метеостанции атмосферное давление.
Tmin - Минимальная температура - минимум температуры воздуха на высоте 2 м над землей.
Tmax - Максимальная температура - максимум температуры воздуха на высоте 2 м над землей.
R - Количество осадков - Количество выпавших осадков за период времени, мм. При наведении курсора мыши на число - период времени, за который выпало указанное количество осадков.
R24 - Количество осадков - Количество выпавших осадков за 24 часа, мм.
S - Снежный покров - Высота снежного покрова, см. При наведении курсора мыши на число - состояние снежного покрова и степень покрытия местности в баллах.